Saint Martin Island, Guadeloupe

11:07 PM AST on January 17, 2018 (GMT -0400)
Saint Martin Island

Weather History for 78866 - December, 2013

Change the Weather History Date:

Saturday, December 28, 2013

  Actual Average Record
Temperature  
Mean Temperature 80 °F -  
Max Temperature 83 °F 81 °F - ()
Min Temperature 76 °F 72 °F - ()
Cooling Degree Days 14    
Growing Degree Days 30 (Base 50)    
Moisture  
Dew Point 70 °F    
Average Humidity 72    
Maximum Humidity 83    
Minimum Humidity 52    
Precipitation  
Precipitation 0.02 in 0.08 in - ()
Sea Level Pressure  
Sea Level Pressure 30.05 in    
Wind  
Wind Speed 10 mph ()    
Max Wind Speed 14 mph    
Max Gust Speed 24 mph    
Visibility 6.9 miles    
Events Rain    
T = Trace of Precipitation, MM = Missing Value Source: Averaged Metar Reports

Daily Weather History Graph

Daily Weather History Graph

Search for Another Location

Airport or City:

Trip Planner

Search our weather history database for the weather conditions in past years. The results will help you decide how hot, cold, wet, or windy it might be!

Date:

Astronomy

Dec. 28, 2013 Rise Set
Actual Time 6:42 AM AST 5:45 PM AST
Civil Twilight 6:18 AM AST 6:09 PM AST
Nautical Twilight 5:51 AM AST 6:36 PM AST
Astronomical Twilight 5:24 AM AST 7:03 PM AST
Moon 2:33 AM AST (12/28) 2:17 PM AST (12/28)
Length of Visible Light 11h 50m
Length of Day
11h 03m
Waning Crescent, 19% of the Moon is Illuminated
Dec 28
Waning Crescent
Jan 1
New
Jan 7
First Quarter
Jan 16
Full
Jan 24
Last Quarter

Hourly Weather History & Observations

Time (AST) Temp. Heat Index Dew Point Humidity Pressure Visibility Wind Dir Wind Speed Gust Speed Precip Events Conditions
12:00 AM 78.8 °F - 69.8 °F 74% 30.06 in 6.2 mi East 12.7 mph - N/A   Scattered Clouds
1:00 AM 78.8 °F - 69.8 °F 74% 30.06 in 6.2 mi East 10.4 mph - N/A   Scattered Clouds
2:00 AM 78 °F - 71 °F 72% 30.06 in 22 mi East 12.7 mph - -   Partly Cloudy
2:00 AM 78.8 °F - 69.8 °F 74% 30.04 in 6.2 mi East 12.7 mph - N/A   Scattered Clouds
3:00 AM 77.0 °F - 69.8 °F 78% 30.01 in 6.2 mi East 8.1 mph - N/A   Scattered Clouds
4:00 AM 77.0 °F - 71.6 °F 83% 30.01 in 6.2 mi East 9.2 mph - N/A   Scattered Clouds
5:00 AM 77 °F - 71 °F 76% 30.03 in 22 mi ENE 8.1 mph - - Rain Light Rain Showers
5:00 AM 77.0 °F - 71.6 °F 83% 30.01 in 6.2 mi ENE 8.1 mph - N/A   Scattered Clouds
6:00 AM 77.0 °F - 71.6 °F 83% 30.04 in 6.2 mi East 6.9 mph - N/A   Scattered Clouds
7:00 AM 77.0 °F - 71.6 °F 83% 30.06 in 6.2 mi East 8.1 mph - N/A   Scattered Clouds
8:00 AM 80 °F - 71 °F 67% 30.09 in 12 mi East 10.4 mph - -   Partly Cloudy
8:00 AM 80.6 °F 84.6 °F 71.6 °F 74% 30.06 in 6.2 mi East 9.2 mph - N/A   Scattered Clouds
9:00 AM 78.8 °F - 71.6 °F 78% 30.09 in 6.2 mi East 10.4 mph - N/A   Scattered Clouds
10:00 AM 82.4 °F 87.2 °F 71.6 °F 70% 30.09 in 6.2 mi East 11.5 mph - N/A   Scattered Clouds
11:00 AM 83 °F - 69 °F 55% 30.10 in 28 mi East 12.7 mph - -   Partly Cloudy
11:00 AM 82.4 °F 86.3 °F 69.8 °F 66% 30.09 in 6.2 mi East 13.8 mph - N/A   Scattered Clouds
12:00 PM 82.4 °F 86.3 °F 69.8 °F 66% 30.06 in 6.2 mi East 11.5 mph 24.2 mph N/A   Scattered Clouds
1:00 PM 82.4 °F 86.3 °F 69.8 °F 66% 30.04 in 6.2 mi East 11.5 mph - N/A   Scattered Clouds
2:00 PM 83 °F - 68 °F 52% 30.03 in 22 mi East 10.4 mph - -   Partly Cloudy
2:00 PM 82.4 °F 85.4 °F 68.0 °F 62% 30.01 in 6.2 mi East 10.4 mph - N/A   Scattered Clouds
3:00 PM 82.4 °F 86.3 °F 69.8 °F 66% 30.01 in 6.2 mi East 11.5 mph - N/A   Scattered Clouds
4:00 PM 80.6 °F 83.9 °F 69.8 °F 70% 29.98 in 6.2 mi East 13.8 mph - N/A   Scattered Clouds
5:00 PM 81 °F - 70 °F 62% 30.02 in 28 mi East 9.2 mph - -   Partly Cloudy
5:00 PM 80.6 °F 83.9 °F 69.8 °F 70% 30.01 in 6.2 mi East 9.2 mph - N/A   Partly Cloudy
6:00 PM 78.8 °F - 69.8 °F 74% 30.01 in 6.2 mi East 9.2 mph - N/A   Scattered Clouds
7:00 PM 78.8 °F - 69.8 °F 74% 30.04 in 6.2 mi East 10.4 mph - N/A   Partly Cloudy
8:00 PM 78 °F - 70 °F 69% 30.07 in 22 mi East 9.2 mph - - Rain Light Rain Showers
8:00 PM 78.8 °F - 69.8 °F 74% 30.06 in 6.2 mi East 9.2 mph - N/A   Partly Cloudy
9:00 PM 78.8 °F - 69.8 °F 74% 30.06 in 6.2 mi East 10.4 mph - N/A   Partly Cloudy
10:00 PM 77.0 °F - 69.8 °F 78% 30.06 in 6.2 mi ENE 12.7 mph - N/A   Scattered Clouds
11:00 PM 78 °F - 70 °F 71% 30.07 in 19 mi East 12.7 mph - -   Partly Cloudy
11:00 PM 77.0 °F - 69.8 °F 78% 30.06 in 6.2 mi ENE 12.7 mph - N/A   Partly Cloudy